TimeMST,TemperatureF,Dew PointF,Humidity,Sea Level PressureIn,VisibilityMPH,Wind Direction,Wind SpeedMPH,Gust SpeedMPH,PrecipitationIn,Events,Conditions,WindDirDegrees,DateUTC
12:15 AM,21.0,4.6,49,30.02,10.0,ESE,17.3,25.3,N/A,,Clear,110,2013-02-20 07:15:00
12:35 AM,20.8,4.1,49,30.02,10.0,ESE,17.3,21.9,N/A,,Clear,110,2013-02-20 07:35:00
12:55 AM,20.7,3.4,47,30.01,10.0,ESE,18.4,24.2,N/A,,Clear,110,2013-02-20 07:55:00
1:15 AM,20.3,3.4,48,30.02,10.0,ESE,17.3,26.5,N/A,,Clear,120,2013-02-20 08:15:00
1:35 AM,20.3,3.6,48,30.01,10.0,ESE,15.0,-,N/A,,Clear,120,2013-02-20 08:35:00
1:55 AM,20.1,3.2,48,30.01,10.0,ESE,16.1,20.7,N/A,,Clear,120,2013-02-20 08:55:00
2:15 AM,19.9,3.7,50,30.00,10.0,ESE,11.5,17.3,N/A,,Clear,120,2013-02-20 09:15:00
2:35 AM,19.4,3.4,50,30.00,10.0,ESE,11.5,-,N/A,,Clear,120,2013-02-20 09:35:00
2:55 AM,19.0,3.6,51,29.99,10.0,ESE,12.7,-,N/A,,Clear,120,2013-02-20 09:55:00
3:15 AM,18.5,3.6,52,29.98,10.0,ESE,11.5,-,N/A,,Scattered Clouds,110,2013-02-20 10:15:00
3:35 AM,18.0,3.6,53,29.98,10.0,ESE,10.4,-,N/A,,Scattered Clouds,110,2013-02-20 10:35:00
3:55 AM,18.3,3.4,52,29.98,10.0,ESE,15.0,20.7,N/A,,Clear,120,2013-02-20 10:55:00
4:15 AM,18.0,3.2,53,29.98,10.0,ESE,11.5,-,N/A,,Clear,110,2013-02-20 11:15:00
4:35 AM,17.6,3.4,54,29.98,10.0,ESE,11.5,17.3,N/A,,Clear,110,2013-02-20 11:35:00
4:55 AM,17.6,3.4,54,29.98,10.0,ESE,13.8,-,N/A,,Mostly Cloudy,120,2013-02-20 11:55:00
5:15 AM,17.1,3.6,56,29.97,10.0,ESE,10.4,-,N/A,,Overcast,120,2013-02-20 12:15:00
5:55 AM,17.4,3.7,55,29.98,10.0,ESE,11.5,-,N/A,,Overcast,120,2013-02-20 12:55:00
6:35 AM,17.6,4.1,56,29.98,10.0,SE,12.7,-,N/A,,Overcast,130,2013-02-20 13:35:00
6:55 AM,17.8,4.1,55,29.98,10.0,ESE,12.7,20.7,N/A,,Overcast,120,2013-02-20 13:55:00
7:15 AM,18.5,4.8,55,29.98,10.0,ESE,15.0,-,N/A,,Overcast,120,2013-02-20 14:15:00
7:35 AM,18.5,5.0,56,29.98,10.0,ESE,15.0,20.7,N/A,,Overcast,120,2013-02-20 14:35:00
7:55 AM,18.9,5.7,57,30.00,10.0,SE,16.1,21.9,N/A,,Overcast,130,2013-02-20 14:55:00
8:15 AM,19.0,6.4,58,29.99,10.0,SE,16.1,20.7,N/A,,Overcast,130,2013-02-20 15:15:00
8:35 AM,19.4,7.2,59,29.98,10.0,SE,18.4,21.9,N/A,,Overcast,140,2013-02-20 15:35:00
8:55 AM,19.9,7.7,59,29.98,10.0,SE,16.1,21.9,N/A,,Overcast,140,2013-02-20 15:55:00
9:15 AM,19.9,8.6,61,29.98,10.0,SE,12.7,21.9,N/A,,Overcast,140,2013-02-20 16:15:00
9:35 AM,19.8,9.7,65,29.98,10.0,SE,15.0,19.6,N/A,,Overcast,140,2013-02-20 16:35:00
9:55 AM,19.6,10.4,68,29.98,10.0,SE,11.5,18.4,N/A,,Overcast,130,2013-02-20 16:55:00
10:15 AM,19.2,11.3,71,29.97,7.0,SE,12.7,18.4,N/A,,Overcast,130,2013-02-20 17:15:00
10:35 AM,18.9,11.8,74,29.98,10.0,SE,13.8,-,N/A,,Overcast,130,2013-02-20 17:35:00
10:55 AM,19.2,12.7,76,29.97,10.0,SE,13.8,-,N/A,,Overcast,130,2013-02-20 17:55:00
11:15 AM,19.4,13.6,78,29.96,10.0,ESE,11.5,-,N/A,,Overcast,120,2013-02-20 18:15:00
11:35 AM,19.6,14.2,80,29.95,10.0,ESE,11.5,-,N/A,,Overcast,120,2013-02-20 18:35:00
11:55 AM,19.9,14.9,81,29.95,10.0,ESE,10.4,20.7,N/A,,Overcast,120,2013-02-20 18:55:00
12:15 PM,20.1,15.4,82,29.93,10.0,ESE,11.5,18.4,N/A,,Overcast,120,2013-02-20 19:15:00
12:35 PM,20.7,16.7,85,29.92,7.0,ESE,12.7,16.1,N/A,,Overcast,120,2013-02-20 19:35:00
12:55 PM,21.7,17.2,83,29.91,7.0,ESE,13.8,19.6,N/A,,Overcast,120,2013-02-20 19:55:00
1:15 PM,22.3,17.1,80,29.91,10.0,SE,11.5,-,N/A,,Overcast,130,2013-02-20 20:15:00
1:35 PM,23.0,17.6,80,29.89,10.0,ESE,16.1,21.9,N/A,,Overcast,120,2013-02-20 20:35:00
1:55 PM,23.5,17.6,78,29.88,10.0,ESE,13.8,-,N/A,,Overcast,110,2013-02-20 20:55:00
2:15 PM,23.9,18.0,78,29.88,10.0,ESE,11.5,18.4,N/A,,Overcast,110,2013-02-20 21:15:00
2:35 PM,23.9,18.3,79,29.87,10.0,ESE,11.5,-,N/A,,Overcast,120,2013-02-20 21:35:00
2:55 PM,24.3,18.5,79,29.87,10.0,ESE,12.7,-,N/A,,Overcast,120,2013-02-20 21:55:00
3:15 PM,24.4,18.9,79,29.87,10.0,ESE,15.0,-,N/A,,Overcast,120,2013-02-20 22:15:00
3:35 PM,24.1,18.5,79,29.87,10.0,ESE,13.8,17.3,N/A,,Overcast,120,2013-02-20 22:35:00
3:55 PM,24.1,18.7,80,29.87,10.0,ESE,12.7,-,N/A,,Overcast,120,2013-02-20 22:55:00
4:15 PM,23.5,19.4,84,29.87,1.8,ESE,12.7,-,N/A,Snow,Light Snow,120,2013-02-20 23:15:00
4:35 PM,23.2,19.4,85,29.87,1.8,ESE,13.8,-,N/A,Snow,Light Snow,120,2013-02-20 23:35:00
4:55 PM,22.6,19.4,87,29.86,0.5,ESE,9.2,-,N/A,Snow,Snow,120,2013-02-20 23:55:00
5:15 PM,22.1,19.2,89,29.87,0.5,ESE,8.1,-,N/A,Snow,Snow,110,2013-02-21 00:15:00
5:35 PM,22.1,19.0,88,29.87,2.0,ESE,11.5,-,N/A,Snow,Light Snow,110,2013-02-21 00:35:00
5:55 PM,21.9,18.9,88,29.87,1.8,ESE,16.1,-,N/A,Snow,Light Snow,120,2013-02-21 00:55:00
6:15 PM,21.7,18.7,88,29.88,2.0,ESE,10.4,-,N/A,Snow,Light Snow,110,2013-02-21 01:15:00
6:35 PM,21.6,18.5,88,29.89,0.8,ESE,10.4,-,N/A,Snow,Snow,110,2013-02-21 01:35:00
6:55 PM,21.2,18.5,89,29.89,2.0,ESE,11.5,-,N/A,Snow,Light Snow,110,2013-02-21 01:55:00
7:15 PM,21.0,18.1,89,29.90,1.5,ESE,10.4,-,N/A,Snow,Light Snow,110,2013-02-21 02:15:00
7:35 PM,21.2,18.5,89,29.90,2.0,ESE,12.7,-,N/A,Snow,Light Snow,110,2013-02-21 02:35:00
7:55 PM,21.2,19.0,91,29.89,2.5,East,10.4,-,N/A,Snow,Light Snow,100,2013-02-21 02:55:00
8:15 PM,21.9,19.6,91,29.89,5.0,ESE,11.5,-,N/A,,Overcast,110,2013-02-21 03:15:00
8:35 PM,21.9,19.4,90,29.89,2.5,ESE,12.7,-,N/A,Snow,Light Snow,110,2013-02-21 03:35:00
8:55 PM,21.9,19.4,90,29.89,1.8,ESE,11.5,-,N/A,Snow,Light Snow,110,2013-02-21 03:55:00
9:35 PM,21.2,18.3,89,29.90,1.8,ESE,13.8,-,0.01,Snow,Light Snow,110,2013-02-21 04:35:00
9:55 PM,21.2,18.5,89,29.89,3.0,ESE,13.8,-,0.01,,Overcast,110,2013-02-21 04:55:00
10:15 PM,21.0,18.3,89,29.89,1.8,East,13.8,-,N/A,Snow,Light Snow,100,2013-02-21 05:15:00
10:35 PM,21.0,18.3,89,29.89,3.0,East,11.5,-,N/A,Snow,Light Snow,100,2013-02-21 05:35:00
10:55 PM,21.0,18.1,89,29.89,3.0,East,12.7,-,N/A,Snow,Light Snow,100,2013-02-21 05:55:00
11:15 PM,20.8,18.1,89,29.88,1.2,East,12.7,-,N/A,Snow,Snow,100,2013-02-21 06:15:00
11:35 PM,20.8,18.1,89,29.87,1.5,East,11.5,-,N/A,Snow,Light Snow,100,2013-02-21 06:35:00
11:55 PM,20.3,17.6,89,29.87,1.8,East,13.8,-,N/A,Snow,Light Snow,100,2013-02-21 06:55:00